Location: Unspecified
(0.0000°N, 0.0000°E)
Time: 11:26:41
(UTC+02:00)

Altair - All Passes

Search period start: 31 July 2014 00:00
Search period end: 10 August 2014 00:00
Orbit: 1502 x 1682 km, 47.2° (Epoch: 29 July)

Date Brightness Start Highest point End Pass type
(mag) Time Alt. Az. Time Alt. Az. Time Alt. Az.
31 Jul - 00:23:09 10° S 00:30:54 28° SE 00:38:23 10° ENE night (unlit)
31 Jul - 02:26:17 10° SW 02:35:30 60° NW 02:44:29 10° NNE visible
31 Jul - 13:10:25 10° NNW 13:20:02 61° NE 13:29:56 10° SE daylight
31 Jul - 15:16:29 10° WNW 15:24:48 30° SW 15:33:18 10° S daylight
31 Jul - 23:58:23 10° S 00:05:43 25° SE 00:12:49 10° E night (unlit)
01 Aug - 02:01:02 10° SW 02:10:23 68° NW 02:19:29 10° NNE visible
01 Aug - 04:13:38 10° NW 04:15:24 11° NW 04:17:10 10° NNW visible
01 Aug - 12:45:26 10° NNW 12:54:52 54° NE 13:04:36 10° SE daylight
01 Aug - 14:50:58 10° WNW 14:59:35 34° SW 15:08:26 10° SSE daylight
01 Aug - 23:33:40 10° S 23:40:31 22° SE 23:47:09 10° E night (unlit)
02 Aug - 01:35:49 10° SW 01:45:17 76° NW 01:54:27 10° NE night (unlit)
02 Aug - 03:46:32 10° WNW 03:50:10 13° NW 03:53:48 10° NNW visible
02 Aug - 12:20:28 10° NNW 12:29:43 48° NE 12:39:14 10° ESE daylight
02 Aug - 14:25:30 10° WNW 14:34:23 38° SW 14:43:32 10° SSE daylight
02 Aug - 23:09:02 10° S 23:15:18 19° SE 23:21:23 10° E night (unlit)
03 Aug - 01:10:38 10° SW 01:20:10 84° NW 01:29:23 10° NE night (unlit)
03 Aug - 03:20:10 10° WNW 03:24:57 15° NW 03:29:42 10° NNW visible
03 Aug - 11:55:33 10° NNW 12:04:33 43° NE 12:13:50 10° ESE daylight
03 Aug - 14:00:06 10° WNW 14:09:12 43° SW 14:18:35 10° SSE daylight
03 Aug - 22:44:29 10° S 22:50:04 17° SE 22:55:30 10° E visible
04 Aug - 00:45:28 10° SW 00:55:03 87° SE 01:04:18 10° NE night (unlit)
04 Aug - 02:54:06 10° W 02:59:45 17° NW 03:05:20 10° N visible
04 Aug - 11:30:40 10° NNW 11:39:24 38° NE 11:48:22 10° ESE daylight
04 Aug - 13:34:44 10° WNW 13:44:01 48° SW 13:53:37 10° SSE daylight
04 Aug - 22:20:07 10° SSE 22:24:49 14° SE 22:29:24 10° ESE visible
05 Aug - 00:20:20 10° SW 00:29:56 79° SE 00:39:10 10° NE night (unlit)
05 Aug - 02:28:13 10° W 02:34:33 20° NW 02:40:50 10° N visible
05 Aug - 11:05:50 10° NNW 11:14:14 34° NE 11:22:52 10° ESE daylight
05 Aug - 13:09:26 10° NW 13:18:51 53° SW 13:28:36 10° SSE daylight
05 Aug - 21:56:01 10° SSE 21:59:32 12° SE 22:03:00 10° ESE visible
05 Aug - 23:55:14 10° SSW 00:04:49 71° SE 00:14:01 10° NE visible
06 Aug - 02:02:26 10° W 02:09:23 23° NW 02:16:13 10° N night (unlit)
06 Aug - 10:41:02 10° N 10:49:03 30° NE 10:57:18 10° ESE daylight
06 Aug - 12:44:10 10° NW 12:53:41 60° SW 13:03:34 10° SSE daylight
06 Aug - 21:32:47 10° SSE 21:34:15 10° SE 21:35:42 10° SE visible
06 Aug - 23:30:10 10° SSW 23:39:42 63° SE 23:48:50 10° NE visible
07 Aug - 01:36:46 10° WSW 01:44:13 26° NW 01:51:32 10° N night (unlit)
07 Aug - 10:16:17 10° N 10:23:53 26° NE 10:31:39 10° ESE daylight
07 Aug - 12:18:56 10° NW 12:28:31 66° SW 12:38:29 10° SSE daylight
07 Aug - 14:30:47 10° WSW 14:34:00 12° SW 14:37:14 10° SSW daylight
07 Aug - 23:05:07 10° SSW 23:14:34 56° SE 23:23:37 10° NE visible
08 Aug - 01:11:10 10° WSW 01:19:04 30° NW 01:26:48 10° N night (unlit)
08 Aug - 09:51:36 10° N 09:58:42 23° NE 10:05:56 10° E daylight
08 Aug - 11:53:45 10° NW 12:03:22 74° SW 12:13:23 10° SSE daylight
08 Aug - 14:04:10 10° WSW 14:08:41 14° SW 14:13:17 10° SSW daylight
08 Aug - 22:40:05 10° SSW 22:49:25 50° SE 22:58:21 10° ENE visible
09 Aug - 00:45:38 10° WSW 00:53:55 34° NW 01:02:00 10° NNE night (unlit)
09 Aug - 09:27:00 10° N 09:33:30 20° NE 09:40:07 10° E daylight
09 Aug - 11:28:35 10° NW 11:38:13 82° SW 11:48:15 10° SE daylight
09 Aug - 13:37:57 10° W 13:43:24 16° SW 13:48:58 10° S daylight
09 Aug - 22:15:06 10° SSW 22:24:16 45° SE 22:33:03 10° ENE visible
